Location: *
(48.4333°N, 5.0333°W)
Time: 13:31:15
(UTC+00:00)

SJ-6B - Pass Details

Date: 13 August 2020
Orbit: 509 x 581 km, 97.6° (Epoch: 23 September)

Event Time Altitude Azimuth Distance (km) Brightness Sun altitude
Rises 21:07:39 0° 205° (SSW) 2,761 6.2 -13.5°
Reaches altitude 10° 21:10:22 10° 224° (SW) 1,858 5.5 -13.9°
Maximum altitude 21:13:09 18° 268° (W) 1,407 5.5 -14.2°
Drops below altitude 10° 21:15:56 10° 312° (NW) 1,840 6.9 -14.6°
Sets 21:18:37 0° 332° (NNW) 2,725 7.8 -14.9°
